{"data":{"norad_id":59420,"epoch":"2026-09-21T15:58:46.375392Z","epoch_age_seconds":64869,"freshness":"FRESH","line1":"1 59420U 24064Y   26264.66581453  .00000824  00000+0  39468-4 0  9991","line2":"2 59420  43.0035  29.7581 0000992 250.8375 109.2369 15.27577105139192","mean_motion":15.27577105,"eccentricity":9.92e-5,"inclination_deg":43.0035,"raan_deg":29.7581,"arg_perigee_deg":250.8375,"mean_anomaly_deg":109.2369,"bstar":3.9468e-5,"rev_number":13919,"period_min":94.266927364036,"perigee_km":482.37713420415,"apogee_km":483.73839524547,"semimajor_km":6861.1947647248,"source":"CELESTRAK","updated_at":"2026-09-22T09:00:48.919143Z"}}